Location: Newark
(29.9790°N, 31.1340°E)
Time: 20:03:27
(UTC+00:00)

Courier 1B - All Passes

Search period start: 18 January 2020 00:00
Search period end: 28 January 2020 00:00
Orbit: 962 x 1209 km, 28.3° (Epoch: 18 January)

Date Brightness Start Highest point End Pass type
(mag) Time Alt. Az. Time Alt. Az. Time Alt. Az.
18 Jan - 00:20:13 10° S 00:23:39 14° SSE 00:27:08 10° ESE visible
18 Jan - 02:10:15 10° SW 02:17:14 39° SSE 02:24:24 10° E visible
18 Jan - 04:03:34 10° WSW 04:11:20 71° S 04:19:10 10° E visible
18 Jan - 05:57:54 10° W 06:05:47 79° S 06:13:31 10° E daylight
18 Jan - 07:52:30 10° W 08:00:04 54° SSW 08:07:18 10° ESE daylight
18 Jan - 09:48:08 10° WSW 09:53:46 23° SSW 09:59:12 10° SSE daylight
19 Jan - 01:17:01 10° SSW 01:23:25 31° SSE 01:30:04 10° E visible
19 Jan - 03:09:46 10° WSW 03:17:22 64° SSE 03:25:07 10° E visible
19 Jan - 05:03:54 10° W 05:11:45 80° S 05:19:36 10° E daylight
19 Jan - 06:58:24 10° W 07:06:09 63° SSW 07:13:40 10° ESE daylight
19 Jan - 08:53:31 10° W 09:00:03 30° SSW 09:06:18 10° SSE daylight
20 Jan - 00:24:03 10° SSW 00:29:41 24° SSE 00:35:30 10° E visible
20 Jan - 02:16:05 10° WSW 02:23:26 55° SSE 02:31:03 10° E visible
20 Jan - 04:09:56 10° W 04:17:44 79° S 04:25:37 10° E visible
20 Jan - 06:04:21 10° W 06:12:11 70° S 06:19:53 10° ESE daylight
20 Jan - 07:59:10 10° W 08:06:16 38° SSW 08:13:07 10° SE daylight
20 Jan - 09:56:41 10° WSW 09:59:48 13° SSW 10:02:52 10° S daylight
20 Jan - 23:31:33 10° S 23:35:59 17° SSE 23:40:33 10° ESE night (unlit)
21 Jan - 01:22:34 10° SW 01:29:34 45° SSE 01:36:54 10° E visible
21 Jan - 03:16:04 10° WSW 03:23:43 76° S 03:31:36 10° E visible
21 Jan - 05:10:21 10° W 05:18:11 76° S 05:26:01 10° ESE daylight
21 Jan - 07:04:57 10° W 07:12:25 47° SSW 07:19:41 10° SE daylight
21 Jan - 09:01:05 10° WSW 09:06:06 19° SSW 09:11:01 10° S daylight
21 Jan - 22:40:09 10° SSE 22:42:20 11° SE 22:44:33 10° SE night (unlit)
22 Jan - 00:29:14 10° SW 00:35:46 36° SSE 00:42:38 10° E visible
22 Jan - 02:22:17 10° WSW 02:29:45 69° SSE 02:37:33 10° E visible
22 Jan - 04:16:24 10° W 04:24:10 80° S 04:32:04 10° E visible
22 Jan - 06:10:51 10° W 06:18:30 56° SSW 06:26:04 10° ESE daylight
22 Jan - 08:06:14 10° W 08:12:21 25° SSW 08:18:20 10° SSE daylight
22 Jan - 23:36:08 10° SSW 23:42:02 28° SSE 23:48:14 10° E night (unlit)
23 Jan - 01:28:35 10° WSW 01:35:49 61° SSE 01:43:27 10° E visible
23 Jan - 03:22:30 10° W 03:30:09 80° S 03:38:02 10° E visible
23 Jan - 05:16:50 10° W 05:24:33 65° SSW 05:32:18 10° ESE daylight
23 Jan - 07:11:46 10° W 07:18:34 32° SSW 07:25:15 10° SE daylight
23 Jan - 22:43:22 10° SSW 22:48:22 21° SSE 22:53:35 10° ESE night (unlit)
24 Jan - 00:35:03 10° SW 00:41:58 52° SSE 00:49:19 10° E visible
24 Jan - 02:28:40 10° W 02:36:09 78° S 02:43:59 10° E visible
24 Jan - 04:22:54 10° W 04:30:34 72° S 04:38:25 10° ESE visible
24 Jan - 06:17:31 10° W 06:24:43 41° SSW 06:31:54 10° SE daylight
24 Jan - 08:14:23 10° WSW 08:18:24 15° SSW 08:22:21 10° S daylight
24 Jan - 21:51:09 10° S 21:54:45 15° SSE 21:58:26 10° ESE night (unlit)
24 Jan - 23:41:39 10° SW 23:48:11 42° SSE 23:55:08 10° E visible
25 Jan - 01:34:55 10° WSW 01:42:12 74° S 01:49:54 10° E visible
25 Jan - 03:29:00 10° W 03:36:35 77° S 03:44:26 10° ESE visible
25 Jan - 05:23:24 10° W 05:30:49 49° SSW 05:38:19 10° SE daylight
25 Jan - 07:19:10 10° WSW 07:24:38 21° SSW 07:30:03 10° SSE daylight
25 Jan - 22:48:26 10° SW 22:54:29 33° SSE 23:00:52 10° E night (unlit)
26 Jan - 00:41:14 10° WSW 00:48:17 67° SSE 00:55:49 10° E visible
26 Jan - 02:35:10 10° W 02:42:35 80° S 02:50:25 10° E visible
26 Jan - 04:29:25 10° W 04:36:54 58° SSW 04:44:35 10° ESE daylight
26 Jan - 06:24:32 10° W 06:30:50 27° SSW 06:37:09 10° SSE daylight
26 Jan - 21:55:28 10° SSW 22:00:50 25° SSE 22:06:26 10° E night (unlit)
26 Jan - 23:47:40 10° WSW 23:54:27 58° SSE 00:01:43 10° E visible
27 Jan - 01:41:23 10° W 01:48:38 80° S 01:56:20 10° E visible
27 Jan - 03:35:31 10° W 03:42:58 66° SSW 03:50:43 10° ESE visible
27 Jan - 05:30:13 10° W 05:37:00 34° SSW 05:43:55 10° SE daylight
27 Jan - 07:28:44 10° SW 07:30:42 11° SSW 07:32:40 10° SSW daylight
27 Jan - 21:02:51 10° S 21:07:14 18° SSE 21:11:44 10° ESE night (unlit)
27 Jan - 22:54:11 10° SW 23:00:42 48° SSE 23:07:36 10° E night (unlit)
